SUNDSVALL-HARNOSAND FLY current weather conditions

sailwx.info

Wind from 120 at 3 knots

Air temperature -0.0° C
Visibility: greater than 5.4 NM
Dewpoint -0.0° C
Present weather: Light rain snow.

Last reported at 2015-Mar-29 22:20 UTC.
Time now 2015-Mar-29 23:50 UTC

Location: N 62°32' E 017°27'.
View on Google Maps.

See reports from other nearby stations

  
Tides and Currents Weather Stations Pressure Air Temp Water Temp Dewpoint Dewpoint Depression Visibility Wind Speed Wind Dir Waves Ship Positions
date/time (UTC)wind fromknots sea level pressurealtimeterstation pressurevisibilityair tempwater tempwave heightnotes
2015-Mar-29 22:20 120 3 5.4-0.0 Light rain snow.
2015-Mar-29 21:50 140 5 2.4-0.0 Light snow rain.
2015-Mar-29 21:20 130 6 3.2-0.0 Light snow rain.
2015-Mar-29 20:50 130 9 2.5-0.0 Light rain snow.
2015-Mar-29 20:20 130 8 2.2-0.0 Light rain snow.
2015-Mar-29 19:50 140 14 2.2-0.0 Light rain snow.
2015-Mar-29 19:20 130 14 1.9-0.0 Light snow rain.
2015-Mar-29 18:50 140 15 1.6-0.0 Light rain snow.
2015-Mar-29 18:20 140 17 2.7 1.0 Light rain snow.
2015-Mar-29 17:50 140 18 2.4 1.0 Rain snow.
2015-Mar-29 17:20 140 17 2.7 1.0 Light rain.
2015-Mar-29 16:50 140 19 2.7 1.0 Light rain.
2015-Mar-29 16:20 140 20 2.5 2.0 Light rain.
2015-Mar-29 15:50 140 19 2.7 2.0 Light rain.
2015-Mar-29 15:20 140 20 2.6 2.0 Light rain.
2015-Mar-29 14:50 140 20 2.2 2.0 Light rain.
2015-Mar-29 14:20 140 19 2.3 2.0 Light rain.
2015-Mar-29 13:50 140 17 2.7 2.0 Light rain.
2015-Mar-29 13:20 140 18 3.2 2.0 Light rain.
2015-Mar-29 12:50 140 19 2.7 1.0 Light rain.
2015-Mar-29 12:20 140 19 2.7 1.0 Light rain.
2015-Mar-29 11:50 140 19 2.7 2.0 Light rain.
2015-Mar-29 11:20 140 17 2.7 2.0 Drizzle.
2015-Mar-29 10:50 150 16 3.8 2.0 Light drizzle.
2015-Mar-29 10:20 140 16 3.8 2.0 Light rain.
2015-Mar-29 09:50 140 17 5.4 2.0 Light drizzle.
2015-Mar-29 09:20 140 16 5.4 2.0 Light drizzle.
2015-Mar-29 08:50 140 17 5.4 2.0
2015-Mar-29 08:20 140 14 5.4 2.0
2015-Mar-29 07:50 140 10 5.4 2.0
2015-Mar-29 07:20 140 12 5.4 2.0
2015-Mar-29 06:50 140 13 5.4 1.0
2015-Mar-29 06:20 150 12 5.4 2.0
2015-Mar-29 05:50 150 12 5.4 1.0
2015-Mar-29 05:20 150 11 5.4 2.0
2015-Mar-29 04:50 140 10 5.4 1.0
2015-Mar-29 04:20 130 7 5.4 1.0
2015-Mar-29 03:50 120 4 5.4 1.0
2015-Mar-29 03:20 120 6 5.4 1.0
2015-Mar-29 02:50 130 5 5.4 1.0
2015-Mar-29 02:20 120 6 5.4 1.0
2015-Mar-29 01:50 110 6 5.4 1.0
2015-Mar-29 01:20 100 5 5.4 1.0
2015-Mar-29 00:50 110 5 5.4 1.0
2015-Mar-29 00:20 120 6 5.4-0.0
2015-Mar-28 23:50 110 5 5.4-0.0
2015-Mar-28 23:20 100 7 5.4-0.0
2015-Mar-28 22:50 120 6 5.4-1.0
2015-Mar-28 22:20 120 8 5.4-0.0
2015-Mar-28 21:50 130 8 5.4-0.0
2015-Mar-28 21:20 5.4-1.0
2015-Mar-28 20:50 5.4-1.0
2015-Mar-28 20:20 110 4 5.4-0.0
2015-Mar-28 19:50 120 6 5.4-0.0
2015-Mar-28 19:20 130 5 5.4-0.0
2015-Mar-28 18:50 130 5 5.4 1.0
2015-Mar-28 18:20 130 5 5.4 1.0
2015-Mar-28 17:50 140 6 5.4 1.0
2015-Mar-28 17:20 140 7 5.4 2.0
2015-Mar-28 16:50 130 10 5.4 3.0
2015-Mar-28 16:20 130 8 5.4 4.0
2015-Mar-28 15:50 130 10 5.4 4.0
2015-Mar-28 15:20 140 5 5.4 5.0
2015-Mar-28 14:50 150 7 5.4 5.0
2015-Mar-28 14:20 150 7 5.4 5.0
2015-Mar-28 13:50 5.4 7.0
2015-Mar-28 13:20 230 3 5.4 7.0
2015-Mar-28 12:50 240 4 5.4 7.0
2015-Mar-28 12:20 230 5 5.4 6.0
2015-Mar-28 11:50 5.4 6.0
2015-Mar-28 11:20 270 1 5.4 7.0
2015-Mar-28 10:50 5.4 6.0
2015-Mar-28 10:20 5.0
2015-Mar-28 09:50 3.0
2015-Mar-28 09:20 4.0
2015-Mar-28 08:50 3.0
2015-Mar-28 08:20 2.0
2015-Mar-28 07:50 2.0
2015-Mar-28 07:20 2.0
2015-Mar-28 06:50 270 3 1.0
2015-Mar-28 06:20 200 1 5.4-0.0
2015-Mar-28 05:50 1.2-1.0
2015-Mar-28 05:20 290 1 4.3-0.0
2015-Mar-28 04:50 3.8-1.0
2015-Mar-28 04:20 310 2 5.4-0.0
2015-Mar-28 03:50 290 2 3.2-0.0 Light snow.
2015-Mar-28 03:20 1.0-0.0 Light snow.
2015-Mar-28 02:50 1.3-0.0 Light snow.
2015-Mar-28 02:20 1.6-0.0 Light snow.
2015-Mar-28 01:50 1.9-0.0 Mist.
2015-Mar-28 01:20 2.6-0.0
2015-Mar-28 00:50 270 2 4.3-0.0 Mist.
2015-Mar-28 00:20 260 2 0.6-0.0 Mist.
2015-Mar-27 23:50 0.4-1.0 Mist.
2015-Mar-27 23:20 0.6-1.0 Mist.